Paulo Viana

Recruteur - Flamengo
4 Avr 2028
Mardi
Processus

Personnalité

Adaptabilité (1) Ambition (6) Controverse (13) Loyauté (20) Pression (18) Professionnalisme (18) Sportivité (11) Tempérament (9)

Profil

Style d'entraînement Démocratique
Diplôme Continental A
Détermination 10
Gestion des joueurs 7
Motivation 16
Discipline 15
Satisfaction professionnelle
100%
Fatigue
0%
Rôle Recruteur
Salaire 48.0K p/s
Contrat 14.03.2029

Performance

Comportement Bon
Efficacité de l'entraînement
48%
Développement des joueurs
80%
Prévention des blessures
45%
Mise en place tactique
70%

Événements récents

Anniversaire 14j

Suivi en cours

93
Joueur Club Statut Capacité Confiance Observé Dernière observation Dernier vote
Julio Enciso Ipswich Town Actif 158 / 139 40% 6 31.12.2027 -
Elias Achouri San Diego Football Club Actif 131 / 125 40% 1 31.12.2027 -
Benjamín Rollheiser Santos Actif 131 / 137 40% 1 31.12.2027 -
Henry Mosquera Bragantino Actif 129 / 123 40% 1 29.12.2027 -
Thiago Almada River Plate Actif 155 / 145 40% 3 28.12.2027 -
Maurício Palmeiras Actif 131 / 136 40% 2 28.12.2027 -
Lucas Piton Vasco da Gama Actif 132 / 125 40% 1 28.12.2027 -
Agustín Giay Palmeiras Actif 131 / 138 40% 4 27.12.2027 -
Pedro de la Vega Seattle Sounders Actif 149 / 133 40% 1 27.12.2027 -
Alexandro Bernabei Internacional Actif 133 / 130 40% 1 26.12.2027 -
David Da Costa Portland Timbers Actif 130 / 136 40% 1 26.12.2027 -
Vitinho Botafogo Actif 137 / 129 40% 1 25.12.2027 -
Keny Arroyo Cruzeiro Refusé 128 / 138 72% 2 24.12.2027 Refuser
Andrés Gómez Vasco da Gama Refusé 140 / 133 40% 1 23.12.2027 Plus d'infos
Marcos Antonio Sport Recife Actif 139 / 143 40% 1 23.12.2027 -
Luciano Juba Bahia Actif 127 / 141 40% 1 23.12.2027 -
Facundo Torres Austin FC Actif 150 / 125 40% 2 21.12.2027 -
Ferreirinha Zenit Actif 124 / 139 40% 1 21.12.2027 -
Santiago Sosa Vasco da Gama Actif 139 / 141 40% 1 15.12.2027 -
Renan Lodi Atlético Mineiro Actif 135 / 132 40% 1 15.12.2027 -
Danilo Botafogo Actif 146 / 148 40% 1 15.12.2027 -
Paulinho Palmeiras Refusé 136 / 149 72% 1 02.12.2027 Refuser
Matheus Henrique Cruzeiro Perdu 132 / 138 40% 1 01.12.2027 -
Marcelo Saracchi Houston Dynamo Actif 126 / 113 40% 1 01.12.2027 -
Steven Alzate Atlanta United FC Perdu 135 / 136 40% 1 01.12.2027 -
Leo Castledine Middlesbrough Actif 143 / 149 40% 2 20.07.2027 -
Derensili Sanches Fernandes Huddersfield Town Perdu 128 / 129 40% 1 20.07.2027 -
Max Johnston Derby County Actif 134 / 120 40% 3 18.07.2027 -
Bobby Thomas Coventry City Actif 126 / 137 40% 1 18.07.2027 -
Léo Scienza Southampton Actif 148 / 129 40% 5 17.07.2027 -
Georginio Rutter Brighton Actif 140 / 140 40% 2 17.07.2027 -
Mohamed Belloumi Hull City Actif 147 / 132 40% 2 17.07.2027 -
Dany Mota Monza Actif 143 / 121 40% 1 17.07.2027 -
Luís Henrique Inter Actif 137 / 142 40% 2 12.07.2027 -
Tyrese Campbell Sheffield United Actif 142 / 138 40% 3 11.07.2027 -
Mohamed-Ali Cho Hull City Actif 143 / 131 40% 3 11.07.2027 -
Gonzalo Fulham Actif 153 / 144 40% 4 10.07.2027 -
Samuel Edozie Southampton Actif 134 / 132 40% 5 09.07.2027 -
Exequiel Palacios Ipswich Town Actif 165 / 153 40% 3 08.07.2027 -
Morgan Whittaker Middlesbrough Actif 129 / 145 40% 4 08.07.2027 -
Jack Rudoni Coventry City Actif 131 / 137 40% 3 07.07.2027 -
Manor Solomon West Ham United Actif 140 / 129 40% 1 07.07.2027 -
Loum Tchaouna Coventry City Actif 140 / 143 40% 5 06.07.2027 -
Kwadwo Baah Watford Actif 127 / 135 40% 2 06.07.2027 -
Rico Lewis Manchester City Actif 152 / 145 40% 2 05.07.2027 -
Yeremy Pino Crystal Palace Actif 157 / 155 40% 1 05.07.2027 -
Harry Wilson Leeds United Actif 150 / 147 40% 4 04.07.2027 -
Sorba Thomas Stoke City Actif 126 / 131 40% 1 04.07.2027 -
Ethan Williams Peterborough United Actif 116 / 125 40% 1 03.07.2027 -
Saša Lukić Ipswich Town Actif 151 / 145 40% 2 01.07.2027 -
Carlos Vicente Birmingham Actif 138 / 144 40% 1 01.07.2027 -
Ben Nelson Leicester City Actif 143 / 143 40% 1 01.07.2027 -
Sven Botman Newcastle United Actif 166 / 163 40% 1 01.07.2027 -
Alexis Mac Allister Liverpool Actif 156 / 159 40% 3 29.06.2027 -
Koki Saito Queens Park Rangers Actif 119 / 140 40% 2 29.06.2027 -
Tomáš Rigo Stoke City Actif 143 / 130 40% 1 29.06.2027 -
Óscar Mingueza Crystal Palace Actif 156 / 143 40% 1 29.06.2027 -
Shea Charles Southampton Actif 141 / 126 40% 1 29.06.2027 -
Jack Clarke Ipswich Town Actif 144 / 126 40% 2 27.06.2027 -
Finn Azaz Southampton Actif 143 / 123 40% 1 27.06.2027 -
Largie Ramazani Leeds United Actif 138 / 140 40% 3 26.06.2027 -
Reiss Nelson AC Milan Actif 141 / 154 40% 3 25.06.2027 -
Chemsdine Talbi Sunderland Actif 149 / 146 40% 3 25.06.2027 -
James Maddison Tottenham Actif 166 / 145 40% 3 25.06.2027 -
Othmane Maamma Watford Actif 120 / 132 40% 1 24.06.2027 -
Assane Diao Como Actif 144 / 146 40% 2 23.06.2027 -
Kiernan Dewsbury-Hall Everton Actif 155 / 147 40% 2 23.06.2027 -
Mason Greenwood Fenerbahce Actif 151 / 172 40% 1 22.06.2027 -
Wilfried Gnonto Leeds United Actif 135 / 151 40% 1 20.06.2027 -
George Hirst Stoke City Actif 135 / 129 40% 2 18.06.2027 -
Welington Southampton Actif 132 / 117 40% 1 18.06.2027 -
Taty Castellanos West Ham United Actif 159 / 157 40% 1 15.06.2027 -
Rodrigo Muniz Fulham Actif 151 / 128 40% 1 15.06.2027 -
Matthijs de Ligt Manchester United Actif 172 / 154 40% 1 14.06.2027 -
Adam Wharton Crystal Palace Actif 159 / 159 40% 1 14.06.2027 -
Ronald Swansea City Actif 119 / 131 40% 1 12.06.2027 -
Quilindschy Hartman Burnley Actif 145 / 150 40% 1 11.06.2027 -
Tom Fellows Southampton Actif 136 / 122 40% 1 09.06.2027 -
Bongani Kekana SuperSport United Actif 133 / 150 40% 1 06.06.2027 -
Loïs Openda Juventus Actif 144 / 143 40% 1 05.06.2027 -
Dávid Strelec Middlesbrough Actif 147 / 127 40% 1 05.06.2027 -
Alex Scott Bournemouth Actif 143 / 166 40% 1 03.06.2027 -
Taiwo Awoniyi Coventry City Actif 146 / 134 40% 1 03.06.2027 -
Donyell Malen AS Roma Actif 164 / 143 40% 1 03.06.2027 -
Vitor Roque Palmeiras Refusé 137 / 150 72% 1 02.06.2027 Refuser
Tomás Araújo Benfica Actif 155 / 133 40% 1 21.12.2026 -
Jakub Kiwior Porto Actif 160 / 167 40% 1 21.12.2026 -
Didier Muller Chamois Niortais Actif 153 / 142 40% 1 14.12.2026 -
Pepê Porto Actif 139 / 152 40% 1 14.12.2026 -
Marcus Rashford Manchester United Actif 167 / 165 40% 1 03.12.2026 -
Amadou Onana Aston Villa Actif 163 / 151 40% 1 02.12.2026 -
Anton Stach Leeds United Actif 155 / 161 40% 1 02.12.2026 -
Santiago Rodríguez Botafogo Actif 119 / 124 72% 1 01.12.2026 Approuver